Time,TemperatureF,DewpointF,PressureIn,WindDirection,WindDirectionDegrees,WindSpeedMPH,WindSpeedGustMPH,Humidity,HourlyPrecipIn,Conditions,Clouds,dailyrainin,SoftwareType,DateUTC
2013-11-03 00:05:00,32.5,31.2,30.04,North,0,0.0,-999.0,95,-99.99,,,0.00,Acu-Link.com,2013-11-03 04:05:00,
2013-11-03 00:21:00,32.2,30.9,30.03,North,0,0.0,-999.0,95,-99.99,,,0.00,Acu-Link.com,2013-11-03 04:21:00,
2013-11-03 00:36:00,31.6,30.1,30.04,NNE,22,0.0,-999.0,94,-99.99,,,0.00,Acu-Link.com,2013-11-03 04:36:00,
2013-11-03 00:51:00,31.3,29.8,30.04,South,180,0.0,-999.0,94,-99.99,,,0.00,Acu-Link.com,2013-11-03 04:51:00,
2013-11-03 01:06:00,31.3,30.0,30.05,South,180,0.0,-999.0,95,-99.99,,,0.00,Acu-Link.com,2013-11-03 05:06:00,
2013-11-03 01:21:00,30.9,29.6,30.05,South,180,0.0,-999.0,95,-99.99,,,0.00,Acu-Link.com,2013-11-03 05:21:00,
2013-11-03 01:36:00,30.9,29.6,30.05,South,180,0.0,-999.0,95,-99.99,,,0.00,Acu-Link.com,2013-11-03 05:36:00,
2013-11-03 01:52:00,30.4,29.1,30.06,SSE,157,0.0,-999.0,95,-99.99,,,0.00,Acu-Link.com,2013-11-03 05:52:00,
2013-11-03 01:07:00,29.8,28.5,30.07,South,180,0.0,-999.0,95,-99.99,,,0.00,Acu-Link.com,2013-11-03 06:07:00,
2013-11-03 01:22:00,29.1,27.9,30.07,South,180,0.0,-999.0,95,-99.99,,,0.00,Acu-Link.com,2013-11-03 06:22:00,
2013-11-03 01:37:00,28.6,27.6,30.08,WSW,247,0.0,-999.0,96,-99.99,,,0.00,Acu-Link.com,2013-11-03 06:37:00,
2013-11-03 01:52:00,28.6,27.6,30.08,South,180,0.0,-999.0,96,-99.99,,,0.00,Acu-Link.com,2013-11-03 06:52:00,
2013-11-03 02:08:00,28.0,27.0,30.09,NNW,337,0.0,-999.0,96,-99.99,,,0.00,Acu-Link.com,2013-11-03 07:08:00,
2013-11-03 02:23:00,28.4,27.4,30.10,North,0,0.0,-999.0,96,-99.99,,,0.00,Acu-Link.com,2013-11-03 07:23:00,
2013-11-03 02:38:00,28.2,27.5,30.10,NW,315,0.0,-999.0,97,-99.99,,,0.00,Acu-Link.com,2013-11-03 07:38:00,
2013-11-03 02:53:00,28.2,27.2,30.11,North,0,0.0,-999.0,96,-99.99,,,0.00,Acu-Link.com,2013-11-03 07:53:00,
2013-11-03 03:08:00,28.4,27.9,30.11,North,0,0.0,-999.0,98,-99.99,,,0.00,Acu-Link.com,2013-11-03 08:08:00,
2013-11-03 03:23:00,27.5,26.5,30.11,North,0,0.0,-999.0,96,-99.99,,,0.00,Acu-Link.com,2013-11-03 08:23:00,
2013-11-03 03:38:00,27.1,25.9,30.11,North,0,0.0,-999.0,95,-99.99,,,0.00,Acu-Link.com,2013-11-03 08:38:00,
2013-11-03 03:53:00,27.3,26.6,30.12,North,0,0.0,-999.0,97,-99.99,,,0.00,Acu-Link.com,2013-11-03 08:53:00,
2013-11-03 04:09:00,28.0,27.5,30.13,North,0,0.0,-999.0,98,-99.99,,,0.00,Acu-Link.com,2013-11-03 09:09:00,
2013-11-03 04:24:00,27.3,26.6,30.13,North,0,0.0,-999.0,97,-99.99,,,0.00,Acu-Link.com,2013-11-03 09:24:00,
2013-11-03 04:39:00,27.5,27.0,30.14,North,0,0.0,-999.0,98,-99.99,,,0.00,Acu-Link.com,2013-11-03 09:39:00,
2013-11-03 04:54:00,26.8,25.8,30.14,North,0,0.0,-999.0,96,-99.99,,,0.00,Acu-Link.com,2013-11-03 09:54:00,
2013-11-03 05:09:00,26.8,26.1,30.15,North,0,0.0,-999.0,97,-99.99,,,0.00,Acu-Link.com,2013-11-03 10:09:00,
2013-11-03 05:24:00,26.8,26.3,30.16,North,0,0.0,-999.0,98,-99.99,,,0.00,Acu-Link.com,2013-11-03 10:24:00,
2013-11-03 05:39:00,25.9,24.9,30.16,North,0,0.0,-999.0,96,-99.99,,,0.00,Acu-Link.com,2013-11-03 10:39:00,
2013-11-03 05:55:00,26.6,26.1,30.17,North,0,0.0,-999.0,98,-99.99,,,0.00,Acu-Link.com,2013-11-03 10:55:00,
2013-11-03 06:10:00,25.7,24.7,30.17,North,0,0.0,-999.0,96,-99.99,,,0.00,Acu-Link.com,2013-11-03 11:10:00,
2013-11-03 06:25:00,25.5,24.3,30.18,North,0,0.0,-999.0,95,-99.99,,,0.00,Acu-Link.com,2013-11-03 11:25:00,
2013-11-03 06:40:00,25.0,23.5,30.19,North,0,0.0,-999.0,94,-99.99,,,0.00,Acu-Link.com,2013-11-03 11:40:00,
2013-11-03 06:56:00,25.0,24.0,30.20,North,0,0.0,-999.0,96,-99.99,,,0.00,Acu-Link.com,2013-11-03 11:56:00,
2013-11-03 07:11:00,24.4,22.7,30.20,North,0,0.0,-999.0,93,-99.99,,,0.00,Acu-Link.com,2013-11-03 12:11:00,
2013-11-03 07:26:00,24.4,22.9,30.22,North,0,0.0,-999.0,94,-99.99,,,0.00,Acu-Link.com,2013-11-03 12:26:00,
2013-11-03 07:41:00,24.4,22.9,30.23,North,0,0.0,-999.0,94,-99.99,,,0.00,Acu-Link.com,2013-11-03 12:41:00,
2013-11-03 07:56:00,25.5,24.3,30.23,North,0,0.0,-999.0,95,-99.99,,,0.00,Acu-Link.com,2013-11-03 12:56:00,
2013-11-03 08:11:00,26.2,25.0,30.24,North,0,0.0,-999.0,95,-99.99,,,0.00,Acu-Link.com,2013-11-03 13:11:00,
2013-11-03 08:27:00,28.0,27.3,30.25,North,0,0.0,-999.0,97,-99.99,,,0.00,Acu-Link.com,2013-11-03 13:27:00,
2013-11-03 08:42:00,32.4,31.9,30.25,South,180,0.0,-999.0,98,-99.99,,,0.00,Acu-Link.com,2013-11-03 13:42:00,
2013-11-03 08:57:00,35.1,34.6,30.26,WNW,292,0.0,-999.0,98,-99.99,,,0.00,Acu-Link.com,2013-11-03 13:57:00,
2013-11-03 09:12:00,36.3,35.5,30.26,ESE,112,1.1,-999.0,97,-99.99,,,0.00,Acu-Link.com,2013-11-03 14:12:00,
2013-11-03 09:27:00,36.5,35.5,30.26,ENE,67,2.7,-999.0,96,-99.99,,,0.00,Acu-Link.com,2013-11-03 14:27:00,
2013-11-03 09:42:00,38.1,35.7,30.26,NE,45,2.7,-999.0,91,-99.99,,,0.01,Acu-Link.com,2013-11-03 14:42:00,
2013-11-03 09:57:00,39.6,36.6,30.26,ESE,112,2.2,-999.0,89,-99.99,,,0.01,Acu-Link.com,2013-11-03 14:57:00,
2013-11-03 10:13:00,41.9,37.7,30.27,SSE,157,2.2,-999.0,85,-99.99,,,0.01,Acu-Link.com,2013-11-03 15:13:00,
2013-11-03 10:28:00,44.1,38.0,30.27,ESE,112,4.2,-999.0,79,-99.99,,,0.01,Acu-Link.com,2013-11-03 15:28:00,
2013-11-03 10:43:00,43.0,36.6,30.28,ENE,67,2.7,-999.0,78,-99.99,,,0.01,Acu-Link.com,2013-11-03 15:43:00,
2013-11-03 10:58:00,43.3,36.3,30.28,West,270,0.0,-999.0,76,-99.99,,,0.01,Acu-Link.com,2013-11-03 15:58:00,
2013-11-03 11:13:00,43.3,36.3,30.29,NE,45,1.7,-999.0,76,-99.99,,,0.01,Acu-Link.com,2013-11-03 16:13:00,
2013-11-03 11:28:00,43.7,37.0,30.30,ESE,112,2.2,-999.0,77,-99.99,,,0.01,Acu-Link.com,2013-11-03 16:28:00,
2013-11-03 11:43:00,44.8,38.0,30.29,SSW,202,2.7,-999.0,77,-99.99,,,0.01,Acu-Link.com,2013-11-03 16:43:00,
2013-11-03 11:58:00,44.8,36.7,30.29,South,180,1.7,-999.0,73,-99.99,,,0.01,Acu-Link.com,2013-11-03 16:58:00,
2013-11-03 12:13:00,47.5,38.9,30.29,SSE,157,1.7,-999.0,72,-99.99,,,0.01,Acu-Link.com,2013-11-03 17:13:00,
2013-11-03 12:29:00,45.9,37.4,30.29,SSE,157,2.2,-999.0,72,-99.99,,,0.01,Acu-Link.com,2013-11-03 17:29:00,
2013-11-03 12:44:00,47.1,37.1,30.28,SSW,202,1.7,-999.0,68,-99.99,,,0.01,Acu-Link.com,2013-11-03 17:44:00,
2013-11-03 12:59:00,44.8,37.0,30.28,South,180,2.7,-999.0,74,-99.99,,,0.01,Acu-Link.com,2013-11-03 17:59:00,
2013-11-03 13:23:00,46.6,37.3,30.29,SE,135,2.7,-999.0,70,-99.99,,,0.01,Acu-Link.com,2013-11-03 18:23:00,
2013-11-03 13:38:00,46.2,36.6,30.29,ESE,112,2.7,-999.0,69,-99.99,,,0.01,Acu-Link.com,2013-11-03 18:38:00,
2013-11-03 13:54:00,46.4,36.4,30.29,ESE,112,1.7,-999.0,68,-99.99,,,0.01,Acu-Link.com,2013-11-03 18:54:00,
2013-11-03 14:09:00,46.8,36.4,30.29,SSE,157,4.2,-999.0,67,-99.99,,,0.01,Acu-Link.com,2013-11-03 19:09:00,
2013-11-03 14:25:00,46.4,35.7,30.29,NE,45,1.7,-999.0,66,-99.99,,,0.01,Acu-Link.com,2013-11-03 19:25:00,
2013-11-03 14:40:00,45.9,35.6,30.29,East,90,3.2,-999.0,67,-99.99,,,0.01,Acu-Link.com,2013-11-03 19:40:00,
2013-11-03 14:55:00,45.9,35.6,30.30,NE,45,0.0,-999.0,67,-99.99,,,0.01,Acu-Link.com,2013-11-03 19:55:00,
2013-11-03 15:14:00,45.3,34.2,30.30,SE,135,2.2,-999.0,65,-99.99,,,0.01,Acu-Link.com,2013-11-03 20:14:00,
2013-11-03 15:29:00,45.1,34.8,30.30,ESE,112,1.7,-999.0,67,-99.99,,,0.01,Acu-Link.com,2013-11-03 20:29:00,
2013-11-03 15:44:00,44.8,34.5,30.30,ESE,112,2.7,-999.0,67,-99.99,,,0.01,Acu-Link.com,2013-11-03 20:44:00,
2013-11-03 15:59:00,44.2,34.7,30.30,SSE,157,1.7,-999.0,69,-99.99,,,0.01,Acu-Link.com,2013-11-03 20:59:00,
2013-11-03 16:15:00,43.9,34.8,30.29,ESE,112,2.7,-999.0,70,-99.99,,,0.01,Acu-Link.com,2013-11-03 21:15:00,
2013-11-03 16:30:00,43.7,34.6,30.30,SSE,157,0.0,-999.0,70,-99.99,,,0.01,Acu-Link.com,2013-11-03 21:30:00,
2013-11-03 16:45:00,43.2,34.1,30.30,ESE,112,2.2,-999.0,70,-99.99,,,0.01,Acu-Link.com,2013-11-03 21:45:00,
2013-11-03 17:01:00,42.8,33.7,30.31,SE,135,1.1,-999.0,70,-99.99,,,0.01,Acu-Link.com,2013-11-03 22:01:00,
2013-11-03 17:16:00,42.1,33.4,30.31,South,180,1.1,-999.0,71,-99.99,,,0.01,Acu-Link.com,2013-11-03 22:16:00,
2013-11-03 17:31:00,41.5,33.2,30.32,South,180,0.0,-999.0,72,-99.99,,,0.01,Acu-Link.com,2013-11-03 22:31:00,
2013-11-03 17:46:00,41.0,33.0,30.32,South,180,1.1,-999.0,73,-99.99,,,0.01,Acu-Link.com,2013-11-03 22:46:00,
2013-11-03 18:01:00,39.4,31.8,30.33,ESE,112,0.0,-999.0,74,-99.99,,,0.01,Acu-Link.com,2013-11-03 23:01:00,
2013-11-03 18:16:00,37.6,31.1,30.33,SSE,157,0.0,-999.0,77,-99.99,,,0.01,Acu-Link.com,2013-11-03 23:16:00,
2013-11-03 18:32:00,35.6,30.4,30.33,SE,135,0.0,-999.0,81,-99.99,,,0.01,Acu-Link.com,2013-11-03 23:32:00,
2013-11-03 18:48:00,34.3,30.3,30.34,SE,135,0.0,-999.0,85,-99.99,,,0.01,Acu-Link.com,2013-11-03 23:48:00,
2013-11-03 19:04:00,33.8,30.6,30.34,ESE,112,3.2,-999.0,88,-99.99,,,0.01,Acu-Link.com,2013-11-04 00:04:00,
2013-11-03 19:19:00,35.2,31.7,30.35,ESE,112,2.7,-999.0,87,-99.99,,,0.01,Acu-Link.com,2013-11-04 00:19:00,
2013-11-03 19:34:00,36.0,31.6,30.35,ESE,112,3.2,-999.0,84,-99.99,,,0.01,Acu-Link.com,2013-11-04 00:34:00,
2013-11-03 19:50:00,36.0,31.0,30.35,SE,135,2.2,-999.0,82,-99.99,,,0.01,Acu-Link.com,2013-11-04 00:50:00,
2013-11-03 20:05:00,35.4,30.5,30.36,ESE,112,2.2,-999.0,82,-99.99,,,0.01,Acu-Link.com,2013-11-04 01:05:00,
2013-11-03 20:20:00,34.7,30.1,30.36,SE,135,1.7,-999.0,83,-99.99,,,0.01,Acu-Link.com,2013-11-04 01:20:00,
2013-11-03 20:35:00,33.8,29.5,30.35,SE,135,1.7,-999.0,84,-99.99,,,0.01,Acu-Link.com,2013-11-04 01:35:00,
2013-11-03 20:50:00,33.3,29.3,30.35,ESE,112,1.7,-999.0,85,-99.99,,,0.01,Acu-Link.com,2013-11-04 01:50:00,
2013-11-03 21:05:00,32.7,29.0,30.36,South,180,1.1,-999.0,86,-99.99,,,0.01,Acu-Link.com,2013-11-04 02:05:00,
2013-11-03 21:20:00,32.5,28.8,30.36,ESE,112,2.2,-999.0,86,-99.99,,,0.01,Acu-Link.com,2013-11-04 02:20:00,
2013-11-03 21:36:00,32.4,29.0,30.36,ESE,112,1.7,-999.0,87,-99.99,,,0.01,Acu-Link.com,2013-11-04 02:36:00,
2013-11-03 21:51:00,32.2,28.8,30.37,ESE,112,0.0,-999.0,87,-99.99,,,0.01,Acu-Link.com,2013-11-04 02:51:00,
2013-11-03 22:06:00,31.6,28.5,30.37,SSE,157,0.0,-999.0,88,-99.99,,,0.01,Acu-Link.com,2013-11-04 03:06:00,
2013-11-03 22:21:00,31.1,28.2,30.37,ESE,112,0.0,-999.0,89,-99.99,,,0.01,Acu-Link.com,2013-11-04 03:21:00,
2013-11-03 22:36:00,31.1,28.2,30.37,SE,135,0.0,-999.0,89,-99.99,,,0.01,Acu-Link.com,2013-11-04 03:36:00,
2013-11-03 22:51:00,31.1,28.2,30.36,ESE,112,1.7,-999.0,89,-99.99,,,0.01,Acu-Link.com,2013-11-04 03:51:00,
2013-11-03 23:06:00,31.8,28.7,30.36,East,90,2.2,-999.0,88,-99.99,,,0.01,Acu-Link.com,2013-11-04 04:06:00,
2013-11-03 23:21:00,31.8,28.4,30.37,WSW,247,2.7,-999.0,87,-99.99,,,0.01,Acu-Link.com,2013-11-04 04:21:00,
2013-11-03 23:37:00,32.0,28.0,30.37,ESE,112,2.2,-999.0,85,-99.99,,,0.01,Acu-Link.com,2013-11-04 04:37:00,
2013-11-03 23:52:00,31.6,27.6,30.38,SE,135,0.0,-999.0,85,-99.99,,,0.01,Acu-Link.com,2013-11-04 04:52:00,